| time (UTC) | temp F | wind direction | speed knots | gust knots | rain 1hr in | rain 24hr in | rain mn in | humidity % | barometer mb |
| 20260510190734 | 71 | 356 | 4.3 | 7.8 | 0.00 | 0.00 | 0.00 | 74 | 1022.9 |
| 20260510190231 | 71 | 357 | 5.2 | 8.7 | 0.00 | 0.00 | 0.00 | 74 | 1023.0 |
| 20260510185727 | 71 | 30 | 5.2 | 7.8 | 0.00 | 0.00 | 0.00 | 74 | 1022.9 |
| 20260510185226 | 71 | 59 | 2.6 | 3.5 | 0.00 | 0.00 | 0.00 | 74 | 1022.9 |
| 20260510184721 | 71 | 58 | 12.2 | 12.2 | 0.00 | 0.00 | 0.00 | 74 | 1022.8 |
| 20260510184219 | 71 | 351 | 3.5 | 7.0 | 0.00 | 0.00 | 0.00 | 74 | 1022.6 |
| 20260510183714 | 71 | 333 | 5.2 | 7.8 | 0.00 | 0.00 | 0.00 | 74 | 1022.6 |
| 20260510183208 | 71 | 36 | 4.3 | 8.7 | 0.00 | 0.00 | 0.00 | 74 | 1022.7 |
| 20260510182705 | 71 | 72 | 3.5 | 7.0 | 0.00 | 0.00 | 0.00 | 74 | 1022.6 |
| 20260510182201 | 70 | 92 | 7.0 | 7.0 | 0.00 | 0.00 | 0.00 | 74 | 1022.8 |
| 20260510181658 | 70 | 8 | 2.6 | 7.8 | 0.00 | 0.00 | 0.00 | 74 | 1023.0 |
| 20260510181155 | 70 | 52 | 7.0 | 11.3 | 0.00 | 0.00 | 0.00 | 74 | 1022.9 |
| 20260510180651 | 70 | 94 | 2.6 | 5.2 | 0.00 | 0.00 | 0.00 | 74 | 1022.7 |
| 20260510180149 | 70 | 327 | 4.3 | 7.0 | 0.00 | 0.00 | 0.00 | 74 | 1022.8 |
| 20260510175644 | 70 | 57 | 5.2 | 7.8 | 0.00 | 0.00 | 0.00 | 74 | 1022.7 |
| 20260510175140 | 70 | 71 | 6.1 | 7.8 | 0.00 | 0.00 | 0.00 | 74 | 1022.6 |
| 20260510174638 | 70 | 22 | 2.6 | 4.3 | 0.00 | 0.00 | 0.00 | 74 | 1022.8 |
| 20260510174136 | 70 | 92 | 7.8 | 7.8 | 0.00 | 0.00 | 0.00 | 74 | 1022.9 |
| 20260510173631 | 70 | 84 | 4.3 | 6.1 | 0.00 | 0.00 | 0.00 | 74 | 1022.6 |
| 20260510173127 | 70 | 49 | 5.2 | 7.0 | 0.00 | 0.00 | 0.00 | 74 | 1022.6 |
| 20260510172623 | 70 | 64 | 7.8 | 7.8 | 0.00 | 0.00 | 0.00 | 74 | 1022.6 |
| 20260510172120 | 70 | 123 | 1.7 | 4.3 | 0.00 | 0.00 | 0.00 | 74 | 1022.6 |
| 20260510171617 | 69 | 71 | 11.3 | 11.3 | 0.00 | 0.00 | 0.00 | 74 | 1022.4 |
| 20260510171114 | 69 | 25 | 4.3 | 9.6 | 0.00 | 0.00 | 0.00 | 74 | 1022.5 |
| 20260510170610 | 70 | 84 | 2.6 | 5.2 | 0.00 | 0.00 | 0.00 | 74 | 1022.4 |
| 20260510170107 | 70 | 3 | 2.6 | 5.2 | 0.00 | 0.00 | 0.00 | 74 | 1022.3 |
| 20260510165603 | 69 | 34 | 4.3 | 5.2 | 0.00 | 0.00 | 0.00 | 74 | 1022.6 |
| 20260510165058 | 69 | 49 | 2.6 | 7.0 | 0.00 | 0.00 | 0.00 | 74 | 1022.5 |
| 20260510164556 | 69 | 93 | 13.0 | 13.0 | 0.00 | 0.00 | 0.00 | 74 | 1022.3 |
| 20260510164052 | 69 | 100 | 4.3 | 5.2 | 0.00 | 0.00 | 0.00 | 74 | 1022.0 |
| 20260510163548 | 69 | 76 | 6.1 | 7.8 | 0.00 | 0.00 | 0.00 | 74 | 1022.2 |
| 20260510163045 | 69 | 48 | 4.3 | 7.8 | 0.00 | 0.00 | 0.00 | 74 | 1022.4 |
| 20260510162539 | 70 | 79 | 2.6 | 13.9 | 0.00 | 0.00 | 0.00 | 74 | 1021.9 |
| 20260510162036 | 70 | 57 | 5.2 | 9.6 | 0.00 | 0.00 | 0.00 | 74 | 1022.4 |
| 20260510161532 | 69 | 50 | 4.3 | 6.1 | 0.00 | 0.00 | 0.00 | 74 | 1022.0 |
| 20260510161029 | 70 | 103 | 4.3 | 4.3 | 0.00 | 0.00 | 0.00 | 74 | 1022.2 |
| 20260510160520 | 68 | 65 | 7.8 | 10.4 | 0.00 | 0.00 | 0.00 | 74 | 1022.0 |
| 20260510160020 | 68 | 70 | 4.3 | 9.6 | 0.00 | 0.00 | 0.00 | 73 | 1022.0 |
| 20260510155516 | 68 | 45 | 3.5 | 7.8 | 0.00 | 0.00 | 0.00 | 74 | 1022.2 |
| 20260510155013 | 68 | 28 | 2.6 | 5.2 | 0.00 | 0.00 | 0.00 | 73 | 1022.4 |
| 20260510154509 | 67 | 81 | 5.2 | 9.6 | 0.00 | 0.00 | 0.00 | 73 | 1022.4 |
| 20260510154009 | 67 | 0 | 3.5 | 8.7 | 0.00 | 0.00 | 0.00 | 73 | 1022.3 |
| 20260510153504 | 67 | 66 | 6.1 | 8.7 | 0.00 | 0.00 | 0.00 | 73 | 1022.2 |
| 20260510153002 | 67 | 47 | 7.0 | 9.6 | 0.00 | 0.00 | 0.00 | 73 | 1022.0 |
| 20260510152459 | 68 | 21 | 2.6 | 7.0 | 0.00 | 0.00 | 0.00 | 73 | 1022.2 |
| 20260510151954 | 67 | 30 | 4.3 | 8.7 | 0.00 | 0.00 | 0.00 | 73 | 1022.4 |
| 20260510151452 | 67 | 71 | 4.3 | 7.0 | 0.00 | 0.00 | 0.00 | 73 | 1022.0 |
| 20260510150948 | 68 | 109 | 5.2 | 6.1 | 0.00 | 0.00 | 0.00 | 74 | 1022.2 |
| 20260510150444 | 67 | 71 | 6.1 | 7.8 | 0.00 | 0.00 | 0.00 | 73 | 1022.3 |
| 20260510145940 | 67 | 30 | 3.5 | 6.1 | 0.00 | 0.00 | 0.00 | 73 | 1022.0 |
| 20260510145437 | 67 | 18 | 4.3 | 7.0 | 0.00 | 0.00 | 0.00 | 73 | 1022.0 |
| 20260510144933 | 67 | 21 | 3.5 | 5.2 | 0.00 | 0.00 | 0.00 | 73 | 1021.9 |
| 20260510144430 | 67 | 45 | 3.5 | 6.1 | 0.00 | 0.00 | 0.00 | 73 | 1021.9 |
| 20260510143925 | 67 | 11 | 3.5 | 6.1 | 0.00 | 0.00 | 0.00 | 73 | 1022.2 |
| 20260510143421 | 67 | 47 | 5.2 | 8.7 | 0.00 | 0.00 | 0.00 | 73 | 1021.8 |
| 20260510142918 | 66 | 15 | 3.5 | 9.6 | 0.00 | 0.00 | 0.00 | 73 | 1021.6 |
| 20260510142415 | 66 | 6 | 5.2 | 6.1 | 0.00 | 0.00 | 0.00 | 73 | 1021.6 |
| 20260510141911 | 66 | 90 | 6.1 | 6.1 | 0.00 | 0.00 | 0.00 | 73 | 1021.6 |
| 20260510141409 | 66 | 41 | 9.6 | 9.6 | 0.00 | 0.00 | 0.00 | 73 | 1021.4 |
| 20260510140906 | 66 | 53 | 1.7 | 2.6 | 0.00 | 0.00 | 0.00 | 73 | 1021.4 |
| 20260510140401 | 65 | 53 | 5.2 | 5.2 | 0.00 | 0.00 | 0.00 | 73 | 1021.4 |
| 20260510135855 | 65 | 90 | 0.0 | 4.3 | 0.00 | 0.00 | 0.00 | 73 | 1021.2 |
| 20260510135351 | 0 | 0.0 | 0.0 | 0.00 | 0.00 | 0.00 | 1021.2 | ||
| 20260510134849 | 0 | 0.0 | 0.0 | 0.00 | 0.00 | 0.00 | 1021.2 | ||
| 20260510134345 | 0 | 0.0 | 0.0 | 0.00 | 0.00 | 0.00 | 1021.1 | ||
| 20260510133841 | 0 | 0.0 | 0.0 | 0.00 | 0.00 | 0.00 | 1020.8 | ||
| 20260510133338 | 0 | 0.0 | 0.0 | 0.00 | 0.00 | 0.00 | 1020.8 | ||
| 20260510132834 | 0 | 0.0 | 0.0 | 0.00 | 0.00 | 0.00 | 1020.9 | ||
| 20260510132332 | 0 | 0.0 | 0.0 | 0.00 | 0.00 | 0.00 | 1020.7 | ||
| 20260510131828 | 0 | 0.0 | 0.0 | 0.00 | 0.00 | 0.00 | 1020.6 | ||
| 20260510131326 | 0 | 0.0 | 0.0 | 0.00 | 0.00 | 0.00 | 1020.5 | ||
| 20260510130822 | 0 | 0.0 | 0.0 | 0.00 | 0.00 | 0.00 | 1020.3 | ||
| 20260510130320 | 0 | 0.0 | 0.0 | 0.00 | 0.00 | 0.00 | 1020.6 | ||
| 20260510125816 | 0 | 0.0 | 0.0 | 0.00 | 0.00 | 0.00 | 1020.4 | ||
| 20260510125312 | 0 | 0.0 | 0.0 | 0.00 | 0.00 | 0.00 | 1020.4 | ||
| 20260510124809 | 0 | 0.0 | 0.0 | 0.00 | 0.00 | 0.00 | 1020.5 | ||
| 20260510124306 | 0 | 0.0 | 0.0 | 0.00 | 0.00 | 0.00 | 1020.4 | ||
| 20260510123802 | 0 | 0.0 | 0.0 | 0.00 | 0.00 | 0.00 | 1020.5 | ||
| 20260510123257 | 0 | 0.0 | 0.0 | 0.00 | 0.00 | 0.00 | 1020.3 | ||
| 20260510122754 | 0 | 0.0 | 0.0 | 0.00 | 0.00 | 0.00 | 1020.3 | ||
| 20260510122250 | 0 | 0.0 | 0.0 | 0.00 | 0.00 | 0.00 | 1020.6 | ||
| 20260510121747 | 0 | 0.0 | 0.0 | 0.00 | 0.00 | 0.00 | 1020.4 | ||
| 20260510121244 | 0 | 0.0 | 0.0 | 0.00 | 0.00 | 0.00 | 1020.3 | ||
| 20260510120742 | 0 | 0.0 | 0.0 | 0.00 | 0.00 | 0.00 | 1020.1 | ||
| 20260510120238 | 0 | 0.0 | 0.0 | 0.00 | 0.00 | 0.00 | 1020.0 | ||
| 20260510115734 | 0 | 0.0 | 0.0 | 0.00 | 0.00 | 0.00 | 1019.9 | ||
| 20260510115232 | 0 | 0.0 | 0.0 | 0.00 | 0.00 | 0.00 | 1019.9 | ||
| 20260510114727 | 0 | 0.0 | 0.0 | 0.00 | 0.00 | 0.00 | 1019.9 | ||
| 20260510114224 | 0 | 0.0 | 0.0 | 0.00 | 0.00 | 0.00 | 1019.8 | ||
| 20260510113719 | 0 | 0.0 | 0.0 | 0.00 | 0.00 | 0.00 | 1019.9 | ||
| 20260510113217 | 0 | 0.0 | 0.0 | 0.00 | 0.00 | 0.00 | 1019.7 | ||
| 20260510112712 | 0 | 0.0 | 0.0 | 0.00 | 0.00 | 0.00 | 1019.8 | ||
| 20260510112210 | 0 | 0.0 | 0.0 | 0.00 | 0.00 | 0.00 | 1019.6 | ||
| 20260510111706 | 0 | 0.0 | 0.0 | 0.00 | 0.00 | 0.00 | 1019.9 | ||
| 20260510111203 | 0 | 0.0 | 0.0 | 0.00 | 0.00 | 0.00 | 1019.8 | ||
| 20260510110702 | 0 | 0.0 | 0.0 | 0.00 | 0.00 | 0.00 | 1019.8 | ||
| 20260510110200 | 0 | 0.0 | 0.0 | 0.00 | 0.00 | 0.00 | 1019.4 | ||
| 20260510105655 | 0 | 0.0 | 0.0 | 0.00 | 0.00 | 0.00 | 1019.5 | ||
| 20260510105150 | 0 | 0.0 | 0.0 | 0.00 | 0.00 | 0.00 | 1019.8 | ||
| 20260510104647 | 0 | 0.0 | 0.0 | 0.00 | 0.00 | 0.00 | 1019.6 | ||
| 20260510104143 | 0 | 0.0 | 0.0 | 0.00 | 0.00 | 0.00 | 1019.4 | ||
| 20260510103635 | 0 | 0.0 | 0.0 | 0.00 | 0.00 | 0.00 | 1019.3 | ||
| 20260510103131 | 0 | 0.0 | 0.0 | 0.00 | 0.00 | 0.00 | 1019.2 | ||
| 20260510102626 | 0 | 0.0 | 0.0 | 0.00 | 0.00 | 0.00 | 1019.2 | ||
| 20260510102122 | 0 | 0.0 | 0.0 | 0.00 | 0.00 | 0.00 | 1019.1 | ||
| 20260510101620 | 0 | 0.0 | 0.0 | 0.00 | 0.00 | 0.00 | 1019.1 | ||
| 20260510101118 | 0 | 0.0 | 0.0 | 0.00 | 0.00 | 0.00 | 1018.8 | ||
| 20260510100614 | 0 | 0.0 | 0.0 | 0.00 | 0.00 | 0.00 | 1018.9 | ||
| 20260510100112 | 0 | 0.0 | 0.0 | 0.00 | 0.00 | 0.00 | 1018.7 | ||
| 20260510095607 | 0 | 0.0 | 0.0 | 0.00 | 0.00 | 0.00 | 1018.6 | ||
| 20260510095102 | 0 | 0.0 | 0.0 | 0.00 | 0.00 | 0.00 | 1018.7 | ||
| 20260510094601 | 0 | 0.0 | 0.0 | 0.00 | 0.00 | 0.00 | 1018.7 | ||
| 20260510094057 | 0 | 0.0 | 0.0 | 0.00 | 0.00 | 0.00 | 1018.4 | ||
| 20260510093553 | 0 | 0.0 | 0.0 | 0.00 | 0.00 | 0.00 | 1018.2 | ||
| 20260510093050 | 0 | 0.0 | 0.0 | 0.00 | 0.00 | 0.00 | 1018.3 | ||
| 20260510092547 | 0 | 0.0 | 0.0 | 0.00 | 0.00 | 0.00 | 1018.4 | ||
| 20260510092046 | 0 | 0.0 | 0.0 | 0.00 | 0.00 | 0.00 | 1018.2 | ||
| 20260510091544 | 0 | 0.0 | 0.0 | 0.00 | 0.00 | 0.00 | 1018.5 | ||
| 20260510091039 | 0 | 0.0 | 0.0 | 0.00 | 0.00 | 0.00 | 1018.5 | ||
| 20260510090537 | 0 | 0.0 | 0.0 | 0.00 | 0.00 | 0.00 | 1018.5 | ||
| 20260510090032 | 0 | 0.0 | 0.0 | 0.00 | 0.00 | 0.00 | 1018.8 | ||
| 20260510085533 | 0 | 0.0 | 0.0 | 0.00 | 0.00 | 0.00 | 1018.6 | ||
| 20260510085029 | 0 | 0.0 | 0.0 | 0.00 | 0.00 | 0.00 | 1018.8 | ||
| 20260510084526 | 0 | 0.0 | 0.0 | 0.00 | 0.00 | 0.00 | 1018.5 | ||
| 20260510084023 | 0 | 0.0 | 0.0 | 0.00 | 0.00 | 0.00 | 1018.6 | ||
| 20260510083519 | 0 | 0.0 | 0.0 | 0.00 | 0.00 | 0.00 | 1018.9 | ||
| 20260510083015 | 0 | 0.0 | 0.0 | 0.00 | 0.00 | 0.00 | 1018.6 | ||
| 20260510082513 | 0 | 0.0 | 0.0 | 0.00 | 0.00 | 0.00 | 1018.3 | ||
| 20260510082013 | 0 | 0.0 | 0.0 | 0.00 | 0.00 | 0.00 | 1018.1 | ||
| 20260510081508 | 0 | 0.0 | 0.0 | 0.00 | 0.00 | 0.00 | 1018.1 | ||
| 20260510081005 | 0 | 0.0 | 0.0 | 0.00 | 0.00 | 0.00 | 1018.1 | ||
| 20260510080503 | 0 | 0.0 | 0.0 | 0.00 | 0.00 | 0.00 | 1017.9 | ||
| 20260510080000 | 0 | 0.0 | 0.0 | 0.00 | 0.00 | 0.00 | 1018.1 | ||
| 20260510075458 | 0 | 0.0 | 0.0 | 0.00 | 0.00 | 0.00 | 1017.9 | ||
| 20260510074954 | 0 | 0.0 | 0.0 | 0.00 | 0.00 | 0.00 | 1017.5 | ||
| 20260510074452 | 0 | 0.0 | 0.0 | 0.00 | 0.00 | 0.00 | 1017.6 | ||
| 20260510073947 | 0 | 0.0 | 0.0 | 0.00 | 0.00 | 0.00 | 1017.7 | ||
| 20260510073443 | 0 | 0.0 | 0.0 | 0.00 | 0.00 | 0.00 | 1017.5 | ||
| 20260510072940 | 0 | 0.0 | 0.0 | 0.00 | 0.00 | 0.00 | 1017.6 | ||
| 20260510072437 | 0 | 0.0 | 0.0 | 0.00 | 0.00 | 0.00 | 1017.7 | ||
| 20260510071932 | 0 | 0.0 | 0.0 | 0.00 | 0.00 | 0.00 | 1017.8 | ||
| 20260510071429 | 0 | 0.0 | 0.0 | 0.00 | 0.00 | 0.00 | 1017.7 | ||
| 20260510070927 | 0 | 0.0 | 0.0 | 0.00 | 0.00 | 0.00 | 1017.8 | ||
| 20260510070424 | 0 | 0.0 | 0.0 | 0.00 | 0.00 | 0.00 | 1017.5 | ||
| 20260510065920 | 0 | 0.0 | 0.0 | 0.00 | 0.00 | 0.00 | 1018.0 | ||
| 20260510065416 | 0 | 0.0 | 0.0 | 0.00 | 0.00 | 0.00 | 1017.9 | ||
| 20260510064913 | 0 | 0.0 | 0.0 | 0.00 | 0.00 | 0.00 | 1017.8 | ||
| 20260510064411 | 0 | 0.0 | 0.0 | 0.00 | 0.00 | 0.00 | 1017.9 | ||
| 20260510063907 | 0 | 0.0 | 0.0 | 0.00 | 0.00 | 0.00 | 1017.9 | ||
| 20260510063403 | 0 | 0.0 | 0.0 | 0.00 | 0.00 | 0.00 | 1018.1 | ||
| 20260510062901 | 0 | 0.0 | 0.0 | 0.00 | 0.00 | 0.00 | 1017.8 | ||
| 20260510062355 | 0 | 0.0 | 0.0 | 0.00 | 0.00 | 0.00 | 1018.1 | ||
| 20260510061851 | 0 | 0.0 | 0.0 | 0.00 | 0.00 | 0.00 | 1018.0 | ||
| 20260510061348 | 68 | 255 | 2.6 | 5.2 | 0.00 | 0.00 | 0.00 | 73 | 1018.0 |
| 20260510060844 | 68 | 255 | 2.6 | 5.2 | 0.00 | 0.00 | 0.00 | 73 | 1018.1 |
| 20260510060342 | 68 | 255 | 2.6 | 5.2 | 0.00 | 0.00 | 0.00 | 73 | 1017.9 |
| 20260510055838 | 68 | 255 | 2.6 | 5.2 | 0.00 | 0.00 | 0.00 | 73 | 1017.8 |
| 20260510055337 | 68 | 255 | 2.6 | 5.2 | 0.00 | 0.00 | 0.00 | 73 | 1018.0 |
| 20260510054836 | 68 | 255 | 2.6 | 5.2 | 0.00 | 0.00 | 0.00 | 73 | 1017.9 |
| 20260510054332 | 68 | 255 | 2.6 | 5.2 | 0.00 | 0.00 | 0.00 | 73 | 1017.9 |
| 20260510053827 | 68 | 255 | 2.6 | 5.2 | 0.00 | 0.00 | 0.00 | 73 | 1018.0 |
| 20260510053323 | 68 | 255 | 2.6 | 5.2 | 0.00 | 0.00 | 0.00 | 73 | 1017.6 |
| 20260510052820 | 68 | 255 | 2.6 | 5.2 | 0.00 | 0.00 | 0.00 | 73 | 1017.7 |
| 20260510052315 | 68 | 255 | 2.6 | 5.2 | 0.00 | 0.00 | 0.00 | 73 | 1018.0 |
| 20260510051812 | 68 | 255 | 2.6 | 5.2 | 0.00 | 0.00 | 0.00 | 73 | 1017.7 |
| 20260510051309 | 69 | 227 | 8.7 | 8.7 | 0.00 | 0.00 | 0.00 | 74 | 1017.8 |
| 20260510050806 | 69 | 227 | 8.7 | 8.7 | 0.00 | 0.00 | 0.00 | 74 | 1017.9 |
| 20260510050302 | 69 | 204 | 6.1 | 6.1 | 0.00 | 0.00 | 0.00 | 74 | 1017.7 |
| 20260510045800 | 69 | 219 | 4.3 | 4.3 | 0.00 | 0.00 | 0.00 | 74 | 1017.6 |
| 20260510045256 | 69 | 219 | 4.3 | 4.3 | 0.00 | 0.00 | 0.00 | 74 | 1017.3 |
| 20260510044753 | 69 | 207 | 3.5 | 11.3 | 0.00 | 0.00 | 0.00 | 74 | 1017.5 |
| 20260510044250 | 69 | 207 | 3.5 | 11.3 | 0.00 | 0.00 | 0.00 | 74 | 1017.2 |
| 20260510043746 | 68 | 222 | 5.2 | 5.2 | 0.00 | 0.00 | 0.00 | 74 | 1017.4 |
| 20260510043243 | 69 | 199 | 5.2 | 11.3 | 0.00 | 0.00 | 0.00 | 74 | 1017.2 |
| 20260510042740 | 68 | 213 | 4.3 | 7.0 | 0.00 | 0.00 | 0.00 | 73 | 1017.4 |
| 20260510042236 | 68 | 213 | 4.3 | 7.0 | 0.00 | 0.00 | 0.00 | 73 | 1017.4 |
| 20260510041733 | 68 | 201 | 6.1 | 6.1 | 0.00 | 0.00 | 0.00 | 73 | 1017.4 |
| 20260510041230 | 68 | 215 | 3.5 | 6.1 | 0.00 | 0.00 | 0.00 | 74 | 1017.4 |
| 20260510040727 | 69 | 201 | 2.6 | 4.3 | 0.00 | 0.00 | 0.00 | 74 | 1017.5 |
| 20260510040224 | 69 | 201 | 2.6 | 4.3 | 0.00 | 0.00 | 0.00 | 74 | 1017.2 |
| 20260510035719 | 69 | 201 | 2.6 | 4.3 | 0.00 | 0.00 | 0.00 | 74 | 1017.3 |
| 20260510035215 | 69 | 201 | 2.6 | 4.3 | 0.00 | 0.00 | 0.00 | 74 | 1017.4 |
| 20260510034711 | 69 | 201 | 2.6 | 4.3 | 0.00 | 0.00 | 0.00 | 74 | 1017.4 |
| 20260510034210 | 69 | 201 | 2.6 | 4.3 | 0.00 | 0.00 | 0.00 | 74 | 1017.4 |
| 20260510033705 | 69 | 201 | 2.6 | 4.3 | 0.00 | 0.00 | 0.00 | 74 | 1017.3 |
| 20260510033203 | 69 | 201 | 2.6 | 4.3 | 0.00 | 0.00 | 0.00 | 74 | 1017.1 |
| 20260510032659 | 69 | 201 | 2.6 | 4.3 | 0.00 | 0.00 | 0.00 | 74 | 1017.2 |
| 20260510032155 | 69 | 201 | 2.6 | 4.3 | 0.00 | 0.00 | 0.00 | 74 | 1017.0 |
| 20260510031649 | 69 | 201 | 2.6 | 4.3 | 0.00 | 0.00 | 0.00 | 74 | 1017.3 |
| 20260510031146 | 69 | 201 | 2.6 | 4.3 | 0.00 | 0.00 | 0.00 | 74 | 1017.0 |
| 20260510030641 | 0 | 0.0 | 0.0 | 0.00 | 0.00 | 0.00 | 1017.0 | ||
| 20260510030139 | 0 | 0.0 | 0.0 | 0.00 | 0.00 | 0.00 | 1017.0 | ||
| 20260510025636 | 0 | 0.0 | 0.0 | 0.00 | 0.00 | 0.00 | 1016.9 | ||
| 20260510025133 | 0 | 0.0 | 0.0 | 0.00 | 0.00 | 0.00 | 1016.9 | ||
| 20260510024630 | 0 | 0.0 | 0.0 | 0.00 | 0.00 | 0.00 | 1016.4 | ||
| 20260510024126 | 0 | 0.0 | 0.0 | 0.00 | 0.00 | 0.00 | 1016.7 | ||
| 20260510023622 | 0 | 0.0 | 0.0 | 0.00 | 0.00 | 0.00 | 1016.5 | ||
| 20260510023120 | 0 | 0.0 | 0.0 | 0.00 | 0.00 | 0.00 | 1016.4 | ||
| 20260510022619 | 0 | 0.0 | 0.0 | 0.00 | 0.00 | 0.00 | 1016.3 | ||
| 20260510022114 | 0 | 0.0 | 0.0 | 0.00 | 0.00 | 0.00 | 1016.1 | ||
| 20260510021610 | 0 | 0.0 | 0.0 | 0.00 | 0.00 | 0.00 | 1016.2 | ||
| 20260510021108 | 0 | 0.0 | 0.0 | 0.00 | 0.00 | 0.00 | 1016.0 | ||
| 20260510020602 | 0 | 0.0 | 0.0 | 0.00 | 0.00 | 0.00 | 1015.8 | ||
| 20260510020058 | 0 | 0.0 | 0.0 | 0.00 | 0.00 | 0.00 | 1015.7 | ||
| 20260510015554 | 0 | 0.0 | 0.0 | 0.00 | 0.00 | 0.00 | 1015.7 | ||
| 20260510015050 | 0 | 0.0 | 0.0 | 0.00 | 0.00 | 0.00 | 1015.7 | ||
| 20260510014546 | 0 | 0.0 | 0.0 | 0.00 | 0.00 | 0.00 | 1015.5 | ||
| 20260510014043 | 0 | 0.0 | 0.0 | 0.00 | 0.00 | 0.00 | 1015.5 | ||
| 20260510013538 | 0 | 0.0 | 0.0 | 0.00 | 0.00 | 0.00 | 1015.3 | ||
| 20260510013034 | 0 | 0.0 | 0.0 | 0.00 | 0.00 | 0.00 | 1015.5 | ||
| 20260510012528 | 0 | 0.0 | 0.0 | 0.00 | 0.00 | 0.00 | 1015.3 | ||
| 20260510012025 | 0 | 0.0 | 0.0 | 0.00 | 0.00 | 0.00 | 1015.6 | ||
| 20260510011524 | 0 | 0.0 | 0.0 | 0.00 | 0.00 | 0.00 | 1015.3 | ||
| 20260510011020 | 0 | 0.0 | 0.0 | 0.00 | 0.00 | 0.00 | 1015.3 | ||
| 20260510010517 | 0 | 0.0 | 0.0 | 0.00 | 0.00 | 0.00 | 1015.4 | ||
| 20260510010014 | 0 | 0.0 | 0.0 | 0.00 | 0.00 | 0.00 | 1015.3 | ||
| 20260510005509 | 0 | 0.0 | 0.0 | 0.00 | 0.00 | 0.00 | 1015.0 | ||
| 20260510005008 | 0 | 0.0 | 0.0 | 0.00 | 0.00 | 0.00 | 1015.2 | ||
| 20260510004505 | 0 | 0.0 | 0.0 | 0.00 | 0.00 | 0.00 | 1015.3 | ||
| 20260510004003 | 0 | 0.0 | 0.0 | 0.00 | 0.00 | 0.00 | 1015.1 | ||
| 20260510003459 | 0 | 0.0 | 0.0 | 0.00 | 0.00 | 0.00 | 1014.9 | ||
| 20260510002955 | 0 | 0.0 | 0.0 | 0.00 | 0.00 | 0.00 | 1015.0 | ||
| 20260510002451 | 0 | 0.0 | 0.0 | 0.00 | 0.00 | 0.00 | 1014.9 | ||
| 20260510001947 | 81 | 140 | 4.3 | 4.3 | 0.00 | 0.00 | 0.00 | 75 | 1014.9 |
| 20260510001445 | 81 | 140 | 4.3 | 4.3 | 0.00 | 0.00 | 0.00 | 75 | 1014.9 |
| 20260510000943 | 81 | 140 | 4.3 | 4.3 | 0.00 | 0.00 | 0.00 | 75 | 1014.9 |
| 20260510000440 | 81 | 140 | 4.3 | 4.3 | 0.00 | 0.00 | 0.00 | 75 | 1014.7 |
| 20260509235935 | 81 | 140 | 4.3 | 4.3 | 0.00 | 0.00 | 0.00 | 75 | 1014.9 |
| 20260509235432 | 81 | 140 | 4.3 | 4.3 | 0.00 | 0.00 | 0.00 | 75 | 1014.6 |
| 20260509234928 | 81 | 140 | 4.3 | 4.3 | 0.00 | 0.00 | 0.00 | 75 | 1014.7 |
| 20260509234425 | 81 | 140 | 4.3 | 4.3 | 0.00 | 0.00 | 0.00 | 75 | 1014.6 |
| 20260509233923 | 81 | 140 | 4.3 | 4.3 | 0.00 | 0.00 | 0.00 | 75 | 1014.6 |
| 20260509233420 | 81 | 140 | 4.3 | 4.3 | 0.00 | 0.00 | 0.00 | 75 | 1014.6 |
| 20260509232916 | 81 | 140 | 4.3 | 4.3 | 0.00 | 0.00 | 0.00 | 75 | 1014.8 |
| 20260509232414 | 81 | 140 | 4.3 | 4.3 | 0.00 | 0.00 | 0.00 | 75 | 1014.7 |
| 20260509231909 | 80 | 246 | 6.1 | 7.0 | 0.00 | 0.00 | 0.00 | 75 | 1014.7 |
| 20260509231407 | 82 | 258 | 2.6 | 5.2 | 0.00 | 0.00 | 0.00 | 75 | 1014.8 |
| 20260509230905 | 81 | 221 | 7.8 | 7.8 | 0.00 | 0.00 | 0.00 | 75 | 1014.7 |
| 20260509230401 | 81 | 223 | 4.3 | 7.8 | 0.00 | 0.00 | 0.00 | 75 | 1014.7 |
| 20260509225857 | 81 | 251 | 7.8 | 9.6 | 0.00 | 0.00 | 0.00 | 75 | 1014.6 |
| 20260509225354 | 82 | 270 | 5.2 | 5.2 | 0.00 | 0.00 | 0.00 | 75 | 1014.8 |
| 20260509224849 | 82 | 220 | 6.1 | 8.7 | 0.00 | 0.00 | 0.00 | 75 | 1014.4 |
| 20260509224346 | 82 | 246 | 7.8 | 11.3 | 0.00 | 0.00 | 0.00 | 75 | 1014.4 |
| 20260509223843 | 83 | 260 | 6.1 | 7.8 | 0.00 | 0.00 | 0.00 | 75 | 1014.5 |
| 20260509223340 | 0 | 0.0 | 0.0 | 0.00 | 0.00 | 0.00 | 1014.5 | ||
| 20260509222837 | 0 | 0.0 | 0.0 | 0.00 | 0.00 | 0.00 | 1014.5 | ||
| 20260509222332 | 82 | 276 | 7.8 | 7.8 | 0.00 | 0.00 | 0.00 | 75 | 1014.2 |
| 20260509221827 | 82 | 276 | 7.8 | 7.8 | 0.00 | 0.00 | 0.00 | 75 | 1014.5 |
| 20260509221325 | 82 | 276 | 7.8 | 7.8 | 0.00 | 0.00 | 0.00 | 75 | 1014.1 |
| 20260509220825 | 82 | 276 | 7.8 | 7.8 | 0.00 | 0.00 | 0.00 | 75 | 1014.4 |
| 20260509220321 | 82 | 276 | 7.8 | 7.8 | 0.00 | 0.00 | 0.00 | 75 | 1014.4 |
| 20260509215817 | 82 | 276 | 7.8 | 7.8 | 0.00 | 0.00 | 0.00 | 75 | 1014.3 |
| 20260509215314 | 82 | 276 | 7.8 | 7.8 | 0.00 | 0.00 | 0.00 | 75 | 1014.3 |
| 20260509214811 | 82 | 276 | 7.8 | 7.8 | 0.00 | 0.00 | 0.00 | 75 | 1014.5 |
| 20260509214308 | 82 | 276 | 7.8 | 7.8 | 0.00 | 0.00 | 0.00 | 75 | 1014.4 |
| 20260509213805 | 82 | 276 | 7.8 | 7.8 | 0.00 | 0.00 | 0.00 | 75 | 1014.3 |
| 20260509213301 | 82 | 276 | 7.8 | 7.8 | 0.00 | 0.00 | 0.00 | 75 | 1014.2 |
| 20260509212758 | 82 | 276 | 7.8 | 7.8 | 0.00 | 0.00 | 0.00 | 75 | 1014.5 |
| 20260509212255 | 80 | 244 | 7.8 | 7.8 | 0.00 | 0.00 | 0.00 | 75 | 1014.4 |
| 20260509211751 | 80 | 251 | 7.8 | 8.7 | 0.00 | 0.00 | 0.00 | 75 | 1014.5 |
| 20260509211248 | 81 | 220 | 4.3 | 7.0 | 0.00 | 0.00 | 0.00 | 75 | 1014.4 |
| 20260509210744 | 81 | 219 | 4.3 | 6.1 | 0.00 | 0.00 | 0.00 | 75 | 1014.5 |
| 20260509210242 | 82 | 251 | 6.1 | 9.6 | 0.00 | 0.00 | 0.00 | 75 | 1014.5 |
| 20260509205741 | 84 | 239 | 3.5 | 4.3 | 0.00 | 0.00 | 0.00 | 76 | 1014.6 |
| 20260509205236 | 83 | 249 | 4.3 | 7.8 | 0.00 | 0.00 | 0.00 | 75 | 1014.6 |
| 20260509204732 | 83 | 278 | 0.9 | 1.7 | 0.00 | 0.00 | 0.00 | 75 | 1014.7 |
| 20260509204229 | 80 | 265 | 1.7 | 3.5 | 0.00 | 0.00 | 0.00 | 75 | 1014.9 |
| 20260509203725 | 80 | 265 | 1.7 | 3.5 | 0.00 | 0.00 | 0.00 | 75 | 1014.5 |
| 20260509203223 | 82 | 300 | 4.3 | 5.2 | 0.00 | 0.00 | 0.00 | 75 | 1014.9 |
| 20260509202719 | 81 | 287 | 6.1 | 6.1 | 0.00 | 0.00 | 0.00 | 75 | 1014.9 |
| 20260509202214 | 81 | 283 | 5.2 | 7.0 | 0.00 | 0.00 | 0.00 | 75 | 1014.7 |
| 20260509201709 | 82 | 175 | 1.7 | 3.5 | 0.00 | 0.00 | 0.00 | 75 | 1014.9 |
| 20260509201206 | 82 | 199 | 3.5 | 3.5 | 0.00 | 0.00 | 0.00 | 75 | 1015.0 |
| 20260509200703 | 82 | 199 | 3.5 | 3.5 | 0.00 | 0.00 | 0.00 | 75 | 1015.2 |
| 20260509200157 | 82 | 289 | 2.6 | 3.5 | 0.00 | 0.00 | 0.00 | 75 | 1015.1 |
| 20260509195654 | 82 | 208 | 1.7 | 3.5 | 0.00 | 0.00 | 0.00 | 75 | 1015.1 |
| 20260509195149 | 81 | 206 | 1.7 | 3.5 | 0.00 | 0.00 | 0.00 | 75 | 1015.4 |
| 20260509194643 | 81 | 201 | 2.6 | 3.5 | 0.00 | 0.00 | 0.00 | 75 | 1015.3 |
| 20260509194140 | 80 | 331 | 2.6 | 3.5 | 0.00 | 0.00 | 0.00 | 75 | 1015.2 |
| 20260509193636 | 80 | 304 | 2.6 | 2.6 | 0.00 | 0.00 | 0.00 | 75 | 1015.4 |
| 20260509193132 | 80 | 231 | 3.5 | 5.2 | 0.00 | 0.00 | 0.00 | 75 | 1015.4 |
| 20260509192629 | 79 | 243 | 7.0 | 8.7 | 0.00 | 0.00 | 0.00 | 75 | 1015.6 |
| 20260509192123 | 80 | 238 | 8.7 | 9.6 | 0.00 | 0.00 | 0.00 | 75 | 1015.4 |
| 20260509191618 | 80 | 270 | 2.6 | 7.8 | 0.00 | 0.00 | 0.00 | 75 | 1015.5 |
| 20260509191115 | 79 | 305 | 4.3 | 12.2 | 0.00 | 0.00 | 0.00 | 75 | 1015.5 |